FW4468 Weather Reports


time (UTC)temp
C
wind
direction
speed
KPH
gust
KPH
rain 1hr
cm
rain 24hr
cm
rain mn
cm
humidity
%
barometer
mb
20260902100017 14 142 0.0 9.7 0.00 0.00 0.00 68 1007.4
20260902094522 14 63 1.6 11.3 0.00 0.00 0.00 68 1007.5
20260902093020 14 150 0.0 11.3 0.00 0.00 0.00 68 1007.5
20260902091512 15 152 1.6 11.3 0.00 0.00 0.00 68 1007.6
20260902090011 15 170 0.0 12.9 0.00 0.00 0.00 67 1007.9
20260902084518 15 134 0.0 12.9 0.00 0.00 0.00 66 1008.0
20260902083009 15 119 0.0 8.0 0.00 0.00 0.00 67 1008.2
20260902081507 15 185 0.0 12.9 0.00 0.00 0.00 67 1008.2
20260902080006 15 150 1.6 12.9 0.00 0.00 0.00 67 1008.2
20260902074504 15 179 1.6 12.9 0.00 0.00 0.00 67 1008.2
20260902073002 15 171 1.6 16.1 0.00 0.00 0.00 66 1007.9
20260902071502 15 178 1.6 14.5 0.00 0.00 0.00 66 1007.9
20260902070058 15 76 1.6 11.3 0.00 0.00 0.00 67 1007.8
20260902064558 15 107 0.0 16.1 0.00 0.00 0.00 66 1007.9
20260902063058 15 169 1.6 14.5 0.00 0.00 0.00 66 1007.8
20260902060100 15 144 0.0 9.7 0.00 0.00 0.00 67 1008.0
20260902054610 15 53 0.0 8.0 0.00 0.00 0.00 66 1008.1
20260902053104 15 138 1.6 11.3 0.00 0.00 0.00 66 1008.3
20260902051553 16 154 1.6 8.0 0.00 0.00 0.00 65 1008.3
20260902050056 16 36 0.0 9.7 0.00 0.00 0.00 65 1008.5
20260902044554 16 238 0.0 11.3 0.00 0.00 0.00 64 1008.4
20260902043053 16 142 0.0 8.0 0.00 0.00 0.00 63 1008.4
20260902041553 16 74 1.6 12.9 0.00 0.00 0.00 63 1008.5
20260902040053 16 150 0.0 12.9 0.00 0.00 0.00 62 1008.5
20260902034553 17 241 0.0 11.3 0.00 0.00 0.00 61 1008.5
20260902033051 17 195 4.8 14.5 0.00 0.00 0.00 59 1008.4
20260902031550 17 46 1.6 11.3 0.00 0.00 0.00 59 1008.3
20260902030049 17 160 1.6 16.1 0.00 0.00 0.00 58 1008.1
20260902024548 18 248 1.6 14.5 0.00 0.00 0.00 57 1008.0
20260902023104 18 182 3.2 11.3 0.00 0.00 0.00 57 1008.0
20260902021548 18 246 0.0 12.9 0.00 0.00 0.00 59 1008.1
20260902020047 18 173 0.0 12.9 0.00 0.00 0.00 58 1008.0
20260902014548 19 198 1.6 16.1 0.00 0.00 0.00 55 1008.1
20260902013053 19 207 1.6 6.4 0.00 0.00 0.00 56 1008.0
20260902011546 19 204 1.6 11.3 0.00 0.00 0.00 57 1008.0
20260902010046 19 94 1.6 17.7 0.00 0.00 0.00 57 1008.1
20260902004545 20 42 0.0 16.1 0.00 0.00 0.00 57 1008.0
20260902003045 19 196 0.0 16.1 0.00 0.00 0.00 57 1008.1
20260902001559 19 126 0.0 11.3 0.00 0.00 0.00 57 1008.0
20260902000045 19 85 1.6 11.3 0.00 0.00 0.00 56 1008.2
20260901234543 20 188 0.0 8.0 0.00 0.00 0.00 55 1008.0
20260901233041 20 142 1.6 12.9 0.00 0.00 0.00 54 1008.0
20260901231540 21 179 6.4 19.3 0.00 0.00 0.00 52 1008.0
20260901230041 21 153 3.2 11.3 0.00 0.00 0.00 52 1007.9
20260901224540 21 153 1.6 14.5 0.00 0.00 0.00 50 1007.9
20260901223047 21 300 3.2 14.5 0.00 0.00 0.00 52 1008.1
20260901221554 21 188 1.6 14.5 0.00 0.00 0.00 53 1008.1
20260901220040 21 113 4.8 17.7 0.00 0.00 0.00 51 1008.2
20260901214538 21 355 3.2 12.9 0.00 0.00 0.00 53 1008.3
20260901213038 21 194 3.2 12.9 0.00 0.00 0.00 53 1008.3
20260901211537 20 153 1.6 12.9 0.00 0.00 0.00 54 1008.4
20260901210038 21 173 6.4 14.5 0.00 0.00 0.00 51 1008.5
20260901204536 21 234 1.6 16.1 0.00 0.00 0.00 51 1008.4
20260901203037 21 240 6.4 17.7 0.00 0.00 0.00 50 1008.5
20260901201533 21 233 4.8 17.7 0.00 0.00 0.00 52 1008.5
20260901200038 21 240 4.8 12.9 0.00 0.00 0.00 53 1008.5
20260901194529 20 176 0.0 12.9 0.00 0.00 0.00 55 1008.7
20260901193028 20 213 3.2 12.9 0.00 0.00 0.00 55 1008.8
20260901191627 20 246 4.8 14.5 0.00 0.00 0.00 55 1008.8
20260901190024 20 223 4.8 17.7 0.00 0.00 0.00 56 1008.9
20260901184523 20 181 4.8 14.5 0.00 0.00 0.00 56 1009.0
20260901183019 19 165 4.8 14.5 0.00 0.00 0.00 59 1008.9
20260901181516 18 26 3.2 16.1 0.00 0.00 0.00 60 1008.9
20260901180016 18 140 1.6 12.9 0.00 0.00 0.00 62 1008.8
20260901174510 17 190 1.6 8.0 0.00 0.00 0.00 62 1008.8
20260901173007 17 203 3.2 11.3 0.00 0.00 0.00 63 1008.8
20260901171504 16 152 1.6 12.9 0.00 0.00 0.00 64 1008.8
20260901170004 16 140 1.6 8.0 0.00 0.00 0.00 64 1008.7
20260901164505 16 173 0.0 8.0 0.00 0.00 0.00 64 1008.6
20260901163059 16 239 3.2 12.9 0.00 0.00 0.00 64 1008.6
20260901161609 16 165 3.2 11.3 0.00 0.00 0.00 65 1008.5
20260901160108 16 166 1.6 16.1 0.00 0.00 0.00 65 1008.6
20260901154558 15 140 1.6 16.1 0.00 0.00 0.00 66 1008.7
20260901153053 15 161 3.2 12.9 0.00 0.00 0.00 67 1008.7
20260901151546 14 182 3.2 11.3 0.00 0.00 0.00 70 1008.9
20260901150043 13 160 0.0 4.8 0.00 0.00 0.00 77 1008.8
20260901144547 13 152 0.0 1.6 0.00 0.00 0.00 76 1008.9
20260901143046 12 152 0.0 0.0 0.00 0.00 0.00 74 1008.9
20260901141547 12 152 0.0 0.0 0.00 0.00 0.00 74 1009.0
20260901140039 12 152 0.0 3.2 0.00 0.00 0.00 74 1008.9
20260901134539 12 152 0.0 1.6 0.00 0.00 0.00 74 1008.7
20260901133037 12 152 0.0 6.4 0.00 0.00 0.00 76 1008.6
20260901131535 12 153 0.0 6.4 0.00 0.00 0.00 77 1008.5
20260901130033 11 205 0.0 4.8 0.00 0.00 0.00 77 1008.5
20260901124532 11 238 0.0 4.8 0.00 0.00 0.00 72 1008.4
20260901123032 11 276 0.0 0.0 0.00 0.00 0.00 70 1008.2
20260901121532 11 276 0.0 0.0 0.00 0.00 0.00 70 1008.2
20260901120031 11 276 0.0 0.0 0.00 0.00 0.00 71 1008.2
20260901114534 11 276 0.0 0.0 0.00 0.00 0.00 70 1008.2
20260901113027 11 276 0.0 0.0 0.00 0.00 0.00 70 1008.2
20260901111525 11 276 0.0 0.0 0.00 0.00 0.00 69 1008.2
20260901110025 11 276 0.0 0.0 0.00 0.00 0.00 69 1008.3
20260901104524 11 276 0.0 0.0 0.00 0.00 0.00 69 1008.4
20260901103023 11 276 0.0 0.0 0.00 0.00 0.00 68 1008.4
20260901101520 11 276 0.0 0.0 0.00 0.00 0.00 68 1008.6